Find Starlink 32485

NORAD ID: 62143 Int'l Des: 2024-224 Owner: SPXS Country: US Constellation: starlink operational
LEOCIRCULAR

Live-Position

3D-Globus wird geladen...

Über Starlink 32485

Beschreibung wird geladen...

Nächste Überflüge

Passes for default location (London). Set your location on the main map for personalized predictions.

Höhenverlauf

Loading altitude history...

Zweizeiliger Elementsatz

1 62143U 24224E 26121.58957850 .00024106 00000-0 88223-3 0 9998
2 62143 42.9973 222.5333 0001866 305.7638 54.3040 15.27595079 80100
Epoch: 1. Mai 2026 • Age: 17 hours

Aktueller Status

Höhe 481.5 km
Geschwindigkeit 7.63 km/s
Subsatellitenpunkt 5.35°N, 107.72°W
Startdatum 30. Nov. 2024
Alter 1.4 years
Typ internet

Technische Details

Klassifizierung Payload
Masse 730.00 kg
Trockenmasse 700.00 kg
Gesamtmasse 730.00 kg
Länge 0.30 m
Durchmesser 4.10 m
Spannweite 29.00 m
Form Box + pan
Hersteller SPXS
Bus-Typ Starlink V2M
Phasenstatus In Orbit
Besitzer/Staat SPXS/US

Most Searched